Weather History for Houston Clover, TX

Change the Weather History Date:

Tuesday, March 5, 2013

  Actual Average (KHOU) Record (KHOU)
Temperature  
Mean Temperature 62 °F 60 °F  
Max Temperature 69 °F 70 °F 84 °F (1998)
Min Temperature 52 °F 50 °F 25 °F (1989)
Degree Days  
Heating Degree Days 4 6  
Month to date heating degree days 34  
Since 1 July heating degree days 1222  
Cooling Degree Days 0 2  
Month to date cooling degree days 8  
Year to date cooling degree days 46  
Growing Degree Days 12 (Base 50)    
Moisture  
Dew Point 36 °F    
Average Humidity 41    
Maximum Humidity 73    
Minimum Humidity 20    
Precipitation  
Precipitation 0.00 in 0.12 in 2.20 in (1933)
Month to date precipitation 0.58  
Year to date precipitation 7.16  
Sea Level Pressure  
Sea Level Pressure 30.15 in    
Wind  
Wind Speed 11 mph (NNW)    
Max Wind Speed 20 mph    
Max Gust Speed 29 mph    
Visibility 10 miles    
Events      
T = Trace of Precipitation, MM = Missing Value Source: NWS Daily Summary

Daily Weather History Graph

Daily Weather History Graph

Search for Another Location

Airport:

Trip Planner

Search our weather history database for the weather conditions in past years. The results will help you decide how hot, cold, wet, or windy it might be!

Date:

Astronomy

Mar. 05, 2013 Rise Set
Actual Time 6:41 AM CST 6:23 PM CST
Civil Twilight 6:18 AM CST 6:47 PM CST
Nautical Twilight 5:50 AM CST 7:14 PM CST
Astronomical Twilight 5:22 AM CST 7:42 PM CST
Moon 1:35 AM CST (3/5) 12:22 PM CST (3/5)
Length of Visible Light 12h 29m
Length of Day
11h 41m
Last Quarter, 40% of the Moon is Illuminated
Mar 5
Last Quarter
Mar 11
New
Mar 19
First Quarter
Mar 27
Full
Apr 2
Last Quarter

Hourly Weather History & Observations

Time (CST) Temp. Dew Point Humidity Pressure Visibility Wind Dir Wind Speed Gust Speed Precip Events Conditions
3:53 AM 68.0 °F 59.0 °F 73% 29.86 in 9.0 mi SSW 8.1 mph 25.3 mph N/A   Overcast
4:53 AM 68.0 °F 59.0 °F 73% 29.89 in 9.0 mi WSW 8.1 mph 24.2 mph N/A   Overcast
5:38 AM 68.0 °F 59.0 °F 73% 29.98 in 9.0 mi West 6.9 mph 17.3 mph N/A   Overcast
5:53 AM 68.0 °F 59.0 °F 73% 30.01 in 9.0 mi WNW 9.2 mph - N/A   Overcast
7:53 AM 62.1 °F 50.0 °F 65% 30.07 in 9.0 mi NW 13.8 mph 20.7 mph N/A   Scattered Clouds
8:16 AM 62.6 °F 46.4 °F 55% 30.09 in 9.0 mi NNW 11.5 mph 23.0 mph N/A   Overcast
8:41 AM 60.8 °F 44.6 °F 55% 30.12 in 9.0 mi NNW 17.3 mph 24.2 mph N/A   Overcast
8:53 AM 59.0 °F 43.0 °F 55% 30.13 in 10.0 mi NNW 17.3 mph 28.8 mph N/A   Overcast
9:53 AM 60.1 °F 39.9 °F 47% 30.16 in 9.0 mi North 18.4 mph 24.2 mph N/A   Mostly Cloudy
10:53 AM 64.9 °F 37.9 °F 37% 30.17 in 10.0 mi North 19.6 mph 25.3 mph N/A   Clear
11:53 AM 66.0 °F 36.0 °F 33% 30.18 in 10.0 mi North 12.7 mph 25.3 mph N/A   Clear
12:53 PM 68.0 °F 35.1 °F 30% 30.17 in 10.0 mi NNW 17.3 mph 24.2 mph N/A   Clear
1:53 PM 69.1 °F 32.0 °F 25% 30.16 in 10.0 mi North 16.1 mph 21.9 mph N/A   Clear
2:53 PM 69.1 °F 28.9 °F 22% 30.17 in 10.0 mi North 12.7 mph 25.3 mph N/A   Clear
3:53 PM 68.0 °F 25.0 °F 20% 30.18 in 10.0 mi NNW 13.8 mph 24.2 mph N/A   Clear
4:53 PM 66.0 °F 24.1 °F 20% 30.19 in 10.0 mi North 13.8 mph 19.6 mph N/A   Clear
5:53 PM 64.0 °F 24.1 °F 22% 30.21 in 10.0 mi North 11.5 mph 19.6 mph N/A   Clear
6:53 PM 61.0 °F 23.0 °F 23% 30.23 in 10.0 mi North 8.1 mph - N/A   Clear
7:53 PM 57.0 °F 26.1 °F 30% 30.25 in 10.0 mi NNW 5.8 mph - N/A   Clear
8:53 PM 57.9 °F 23.0 °F 26% 30.28 in 10.0 mi NNW 5.8 mph - N/A   Clear
9:53 PM 55.9 °F 21.9 °F 27% 30.30 in 10.0 mi North 10.4 mph 18.4 mph N/A   Clear
10:53 PM 54.0 °F 21.0 °F 28% 30.31 in 10.0 mi North 11.5 mph - N/A   Clear
11:53 PM 52.0 °F 21.0 °F 30% 30.32 in 10.0 mi North 9.2 mph - N/A   Clear